Retour au catalogue

STARLINK-5717

ActifCommunicationsVLEO
NORAD 55618·PAYLOAD·🇺🇸 United States

Lancé Feb 12, 2023 depuis Cape Canaveral Space Force Station

Loading…

Prochains Passages (prochaines 24 heures)

TLE

FraisSource: CelesTrak SupGP

Époque: Sep 14, 2026, 21:45 UTC

1 55618C 23020BB  26257.90673611 -.00030864  00000+0 -11177-2 0  2575
2 55618  43.0030   5.5004 0001472 269.1386 289.5195 15.27599636    13

Suivez STARLINK-5717 en temps réel avec AllMySat

Download on the App Store